Year,Month,Day,Hour,Minute,Value (Times are PST for temperature in C)
2017,08,02,00,00,16.10
2017,08,02,00,01,16.10
2017,08,02,00,02,16.10
2017,08,02,00,03,16.10
2017,08,02,00,04,16.10
2017,08,02,00,05,16.20
2017,08,02,00,06,16.20
2017,08,02,00,07,16.20
2017,08,02,00,08,16.20
2017,08,02,00,09,16.20
2017,08,02,00,10,16.20
2017,08,02,00,11,16.20
2017,08,02,00,12,16.20
2017,08,02,00,13,16.20
2017,08,02,00,14,16.20
2017,08,02,00,15,16.20
2017,08,02,00,16,16.20
2017,08,02,00,17,16.20
2017,08,02,00,18,16.20
2017,08,02,00,19,16.30
2017,08,02,00,20,16.30
2017,08,02,00,21,16.30
2017,08,02,00,22,16.30
2017,08,02,00,23,16.30
2017,08,02,00,24,16.30
2017,08,02,00,25,16.30
2017,08,02,00,26,16.30
2017,08,02,00,27,16.30
2017,08,02,00,28,16.30
2017,08,02,00,29,16.30
2017,08,02,00,30,16.40
2017,08,02,00,31,16.40
2017,08,02,00,32,16.40
2017,08,02,00,33,16.40
2017,08,02,00,34,16.40
2017,08,02,00,35,16.40
2017,08,02,00,36,16.40
2017,08,02,00,37,16.40
2017,08,02,00,38,16.40
2017,08,02,00,39,16.40
2017,08,02,00,40,16.40
2017,08,02,00,41,16.40
2017,08,02,00,42,16.40
2017,08,02,00,43,16.40
2017,08,02,00,44,16.30
2017,08,02,00,45,16.30
2017,08,02,00,46,16.30
2017,08,02,00,47,16.30
2017,08,02,00,48,16.30
2017,08,02,00,49,16.20
2017,08,02,00,50,16.20
2017,08,02,00,51,16.20
2017,08,02,00,52,16.20
2017,08,02,00,53,16.10
2017,08,02,00,54,16.10
2017,08,02,00,55,16.10
2017,08,02,00,56,16.10
2017,08,02,00,57,16.10
2017,08,02,00,58,16.10
2017,08,02,00,59,16.10
2017,08,02,01,00,16.20
2017,08,02,01,01,16.20
2017,08,02,01,02,16.20
2017,08,02,01,03,16.20
2017,08,02,01,04,16.30
2017,08,02,01,05,16.30
2017,08,02,01,06,16.30
2017,08,02,01,07,16.30
2017,08,02,01,08,16.40
2017,08,02,01,09,16.40
2017,08,02,01,10,16.40
2017,08,02,01,11,16.40
2017,08,02,01,12,16.40
2017,08,02,01,13,16.40
2017,08,02,01,14,16.40
2017,08,02,01,15,16.30
2017,08,02,01,16,16.30
2017,08,02,01,17,16.30
2017,08,02,01,18,16.30
2017,08,02,01,19,16.30
2017,08,02,01,20,16.20
2017,08,02,01,21,16.20
2017,08,02,01,22,16.10
2017,08,02,01,23,16.10
2017,08,02,01,24,16.10
2017,08,02,01,25,16.00
2017,08,02,01,26,15.80
2017,08,02,01,27,15.70
2017,08,02,01,28,15.60
2017,08,02,01,29,15.50
2017,08,02,01,30,15.50
2017,08,02,01,31,15.40
2017,08,02,01,32,15.30
2017,08,02,01,33,15.30
2017,08,02,01,34,15.30
2017,08,02,01,35,15.20
2017,08,02,01,36,15.20
2017,08,02,01,37,15.20
2017,08,02,01,38,15.20
2017,08,02,01,39,15.20
2017,08,02,01,40,15.20
2017,08,02,01,41,15.20
2017,08,02,01,42,15.20
2017,08,02,01,43,15.20
2017,08,02,01,44,15.10
2017,08,02,01,45,15.10
2017,08,02,01,46,15.10
2017,08,02,01,47,15.10
2017,08,02,01,48,15.10
2017,08,02,01,49,15.10
2017,08,02,01,50,15.10
2017,08,02,01,51,15.10
2017,08,02,01,52,15.10
2017,08,02,01,53,15.10
2017,08,02,01,54,15.10
2017,08,02,01,55,15.10
2017,08,02,01,56,15.10
2017,08,02,01,57,15.10
2017,08,02,01,58,15.10
2017,08,02,01,59,15.10
2017,08,02,02,00,15.10
2017,08,02,02,01,15.10
2017,08,02,02,02,15.00
2017,08,02,02,03,15.00
2017,08,02,02,04,15.00
2017,08,02,02,05,15.00
2017,08,02,02,06,15.00
2017,08,02,02,07,15.00
2017,08,02,02,08,15.00
2017,08,02,02,09,15.00
2017,08,02,02,10,14.90
2017,08,02,02,11,14.90
2017,08,02,02,12,15.00
2017,08,02,02,13,15.00
2017,08,02,02,14,15.00
2017,08,02,02,15,15.00
2017,08,02,02,16,15.00
2017,08,02,02,17,15.00
2017,08,02,02,18,15.00
2017,08,02,02,19,15.00
2017,08,02,02,20,15.00
2017,08,02,02,21,15.00
2017,08,02,02,22,15.00
2017,08,02,02,23,15.00
2017,08,02,02,24,15.00
2017,08,02,02,25,15.00
2017,08,02,02,26,15.10
2017,08,02,02,27,15.10
2017,08,02,02,28,15.10
2017,08,02,02,29,15.10
2017,08,02,02,30,15.10
2017,08,02,02,31,15.10
2017,08,02,02,32,15.10
2017,08,02,02,33,15.10
2017,08,02,02,34,15.10
2017,08,02,02,35,15.10
2017,08,02,02,36,15.10
2017,08,02,02,37,15.10
2017,08,02,02,38,15.10
2017,08,02,02,39,15.10
2017,08,02,02,40,15.10
2017,08,02,02,41,15.10
2017,08,02,02,42,15.00
2017,08,02,02,43,15.00
2017,08,02,02,44,15.00
2017,08,02,02,45,15.00
2017,08,02,02,46,15.00
2017,08,02,02,47,15.00
2017,08,02,02,48,15.00
2017,08,02,02,49,15.00
2017,08,02,02,50,15.00
2017,08,02,02,51,15.00
2017,08,02,02,52,15.10
2017,08,02,02,53,15.00
2017,08,02,02,54,15.10
2017,08,02,02,55,15.10
2017,08,02,02,56,15.10
2017,08,02,02,57,15.10
2017,08,02,02,58,15.10
2017,08,02,02,59,15.10
2017,08,02,03,00,15.10
2017,08,02,03,01,15.10
2017,08,02,03,02,15.20
2017,08,02,03,03,15.20
2017,08,02,03,04,15.20
2017,08,02,03,05,15.20
2017,08,02,03,06,15.20
2017,08,02,03,07,15.20
2017,08,02,03,08,15.20
2017,08,02,03,09,15.20
2017,08,02,03,10,15.20
2017,08,02,03,11,15.20
2017,08,02,03,12,15.20
2017,08,02,03,13,15.20
2017,08,02,03,14,15.20
2017,08,02,03,15,15.20
2017,08,02,03,16,15.20
2017,08,02,03,17,15.20
2017,08,02,03,18,15.20
2017,08,02,03,19,15.20
2017,08,02,03,20,15.20
2017,08,02,03,21,15.20
2017,08,02,03,22,15.30
2017,08,02,03,23,15.30
2017,08,02,03,24,15.30
2017,08,02,03,25,15.30
2017,08,02,03,26,15.30
2017,08,02,03,27,15.30
2017,08,02,03,28,15.30
2017,08,02,03,29,15.30
2017,08,02,03,30,15.40
2017,08,02,03,31,15.50
2017,08,02,03,32,15.60
2017,08,02,03,33,15.70
2017,08,02,03,34,15.80
2017,08,02,03,35,15.80
2017,08,02,03,36,15.90
2017,08,02,03,37,16.00
2017,08,02,03,38,16.10
2017,08,02,03,39,16.20
2017,08,02,03,40,16.20
2017,08,02,03,41,16.20
2017,08,02,03,42,16.20
2017,08,02,03,43,16.30
2017,08,02,03,44,16.30
2017,08,02,03,45,16.40
2017,08,02,03,46,16.50
2017,08,02,03,47,16.70
2017,08,02,03,48,16.90
2017,08,02,03,49,17.10
2017,08,02,03,50,17.20
2017,08,02,03,51,17.30
2017,08,02,03,52,17.30
2017,08,02,03,53,17.20
2017,08,02,03,54,17.20
2017,08,02,03,55,17.10
2017,08,02,03,56,17.10
2017,08,02,03,57,17.00
2017,08,02,03,58,16.90
2017,08,02,03,59,16.80
2017,08,02,04,00,16.80
2017,08,02,04,01,16.70
2017,08,02,04,02,16.60
2017,08,02,04,03,16.50
2017,08,02,04,04,16.50
2017,08,02,04,05,16.40
2017,08,02,04,06,16.40
2017,08,02,04,07,16.40
2017,08,02,04,08,16.30
2017,08,02,04,09,16.30
2017,08,02,04,10,16.30
2017,08,02,04,11,16.30
2017,08,02,04,12,16.20
2017,08,02,04,13,16.20
2017,08,02,04,14,16.20
2017,08,02,04,15,16.10
2017,08,02,04,16,16.10
2017,08,02,04,17,16.00
2017,08,02,04,18,16.00
2017,08,02,04,19,15.90
2017,08,02,04,20,15.90
2017,08,02,04,21,15.90
2017,08,02,04,22,15.90
2017,08,02,04,23,15.90
2017,08,02,04,24,16.00
2017,08,02,04,25,16.00
2017,08,02,04,26,16.10
2017,08,02,04,27,16.10
2017,08,02,04,28,16.10
2017,08,02,04,29,16.10
2017,08,02,04,30,16.10
2017,08,02,04,31,16.10
2017,08,02,04,32,16.10
2017,08,02,04,33,16.10
2017,08,02,04,34,16.00
2017,08,02,04,35,16.00
2017,08,02,04,36,16.00
2017,08,02,04,37,16.00
2017,08,02,04,38,16.00
2017,08,02,04,39,15.90
2017,08,02,04,40,15.90
2017,08,02,04,41,15.80
2017,08,02,04,42,15.80
2017,08,02,04,43,15.80
2017,08,02,04,44,15.80
2017,08,02,04,45,15.70
2017,08,02,04,46,15.70
2017,08,02,04,47,15.70
2017,08,02,04,48,15.70
2017,08,02,04,49,15.70
2017,08,02,04,50,15.70
2017,08,02,04,51,15.70
2017,08,02,04,52,15.70
2017,08,02,04,53,15.70
2017,08,02,04,54,15.70
2017,08,02,04,55,15.80
2017,08,02,04,56,15.80
2017,08,02,04,57,15.80
2017,08,02,04,58,15.80
2017,08,02,04,59,15.90
2017,08,02,05,00,16.00
2017,08,02,05,01,16.00
2017,08,02,05,02,16.00
2017,08,02,05,03,16.00
2017,08,02,05,04,16.00
2017,08,02,05,05,16.10
2017,08,02,05,06,16.10
2017,08,02,05,07,16.20
2017,08,02,05,08,16.20
2017,08,02,05,09,16.40
2017,08,02,05,10,16.60
2017,08,02,05,11,16.80
2017,08,02,05,12,16.90
2017,08,02,05,13,17.10
2017,08,02,05,14,17.20
2017,08,02,05,15,17.30
2017,08,02,05,16,17.30
2017,08,02,05,17,17.30
2017,08,02,05,18,17.40
2017,08,02,05,19,17.50
2017,08,02,05,20,17.50
2017,08,02,05,21,17.50
2017,08,02,05,22,17.50
2017,08,02,05,23,17.40
2017,08,02,05,24,17.20
2017,08,02,05,25,17.10
2017,08,02,05,26,17.00
2017,08,02,05,27,16.90
2017,08,02,05,28,16.80
2017,08,02,05,29,16.70
2017,08,02,05,30,16.60
2017,08,02,05,31,16.60
2017,08,02,05,32,16.50
2017,08,02,05,33,16.50
2017,08,02,05,34,16.50
2017,08,02,05,35,16.60
2017,08,02,05,36,16.60
2017,08,02,05,37,16.60
2017,08,02,05,38,16.50
2017,08,02,05,39,16.40
2017,08,02,05,40,16.40
2017,08,02,05,41,16.50
2017,08,02,05,42,16.50
2017,08,02,05,43,16.60
2017,08,02,05,44,16.70
2017,08,02,05,45,16.80
2017,08,02,05,46,16.80
2017,08,02,05,47,16.90
2017,08,02,05,48,17.10
2017,08,02,05,49,17.20
2017,08,02,05,50,17.20
2017,08,02,05,51,17.20
2017,08,02,05,52,17.10
2017,08,02,05,53,17.00
2017,08,02,05,54,16.90
2017,08,02,05,55,16.80
2017,08,02,05,56,16.70
2017,08,02,05,57,16.60
2017,08,02,05,58,16.50
2017,08,02,05,59,16.40
2017,08,02,06,00,16.40
2017,08,02,06,01,16.40
2017,08,02,06,02,16.40
2017,08,02,06,03,16.30
2017,08,02,06,04,16.30
2017,08,02,06,05,16.30
2017,08,02,06,06,16.30
2017,08,02,06,07,16.30
2017,08,02,06,08,16.30
2017,08,02,06,09,16.30
2017,08,02,06,10,16.30
2017,08,02,06,11,16.40
2017,08,02,06,12,16.60
2017,08,02,06,13,16.80
2017,08,02,06,14,16.90
2017,08,02,06,15,17.00
2017,08,02,06,16,17.20
2017,08,02,06,17,17.30
2017,08,02,06,18,17.50
2017,08,02,06,19,17.60
2017,08,02,06,20,17.80
2017,08,02,06,21,18.00
2017,08,02,06,22,18.20
2017,08,02,06,23,18.30
2017,08,02,06,24,18.50
2017,08,02,06,25,18.60
2017,08,02,06,26,18.70
2017,08,02,06,27,18.80
2017,08,02,06,28,18.90
2017,08,02,06,29,19.00
2017,08,02,06,30,19.10
2017,08,02,06,31,19.20
2017,08,02,06,32,19.20
2017,08,02,06,33,19.30
2017,08,02,06,34,19.30
2017,08,02,06,35,19.40
2017,08,02,06,36,19.40
2017,08,02,06,37,19.50
2017,08,02,06,38,19.60
2017,08,02,06,39,19.60
2017,08,02,06,40,19.70
2017,08,02,06,41,19.70
2017,08,02,06,42,19.70
2017,08,02,06,43,19.70
2017,08,02,06,44,19.70
2017,08,02,06,45,19.70
2017,08,02,06,46,19.70
2017,08,02,06,47,19.70
2017,08,02,06,48,19.70
2017,08,02,06,49,19.70
2017,08,02,06,50,19.70
2017,08,02,06,51,19.70
2017,08,02,06,52,19.60
2017,08,02,06,53,19.70
2017,08,02,06,54,19.70
2017,08,02,06,55,19.60
2017,08,02,06,56,19.60
2017,08,02,06,57,19.70
2017,08,02,06,58,19.70
2017,08,02,06,59,19.70
2017,08,02,07,00,19.70
2017,08,02,07,01,19.70
2017,08,02,07,02,19.80
2017,08,02,07,03,19.80
2017,08,02,07,04,19.90
2017,08,02,07,05,19.90
2017,08,02,07,06,20.00
2017,08,02,07,07,20.10
2017,08,02,07,08,20.10
2017,08,02,07,09,20.10
2017,08,02,07,10,20.20
2017,08,02,07,11,20.20
2017,08,02,07,12,20.20
2017,08,02,07,13,20.20
2017,08,02,07,14,20.20
2017,08,02,07,15,20.20
2017,08,02,07,16,20.20
2017,08,02,07,17,20.20
2017,08,02,07,18,20.20
2017,08,02,07,19,20.30
2017,08,02,07,20,20.30
2017,08,02,07,21,20.30
2017,08,02,07,22,20.30
2017,08,02,07,23,20.30
2017,08,02,07,24,20.30
2017,08,02,07,25,20.20
2017,08,02,07,26,20.20
2017,08,02,07,27,20.20
2017,08,02,07,28,20.20
2017,08,02,07,29,20.20
2017,08,02,07,30,20.30
2017,08,02,07,31,20.40
2017,08,02,07,32,20.40
2017,08,02,07,33,20.40
2017,08,02,07,34,20.40
2017,08,02,07,35,20.50
2017,08,02,07,36,20.50
2017,08,02,07,37,20.60
2017,08,02,07,38,20.60
2017,08,02,07,39,20.70
2017,08,02,07,40,20.70
2017,08,02,07,41,20.70
2017,08,02,07,42,20.70
2017,08,02,07,43,20.70
2017,08,02,07,44,20.70
2017,08,02,07,45,20.70
2017,08,02,07,46,20.70
2017,08,02,07,47,20.80
2017,08,02,07,48,20.80
2017,08,02,07,49,20.80
2017,08,02,07,50,20.80
2017,08,02,07,51,20.90
2017,08,02,07,52,20.90
2017,08,02,07,53,20.90
2017,08,02,07,54,20.90
2017,08,02,07,55,21.00
2017,08,02,07,56,21.10
2017,08,02,07,57,21.20
2017,08,02,07,58,21.20
2017,08,02,07,59,21.30
2017,08,02,08,00,21.30
2017,08,02,08,01,21.40
2017,08,02,08,02,21.50
2017,08,02,08,03,21.50
2017,08,02,08,04,21.50
2017,08,02,08,05,21.60
2017,08,02,08,06,21.60
2017,08,02,08,07,21.70
2017,08,02,08,08,21.70
2017,08,02,08,09,21.70
2017,08,02,08,10,21.80
2017,08,02,08,11,21.80
2017,08,02,08,12,21.90
2017,08,02,08,13,21.90
2017,08,02,08,14,21.90
2017,08,02,08,15,22.00
2017,08,02,08,16,22.00
2017,08,02,08,17,22.00
2017,08,02,08,18,22.10
2017,08,02,08,19,22.10
2017,08,02,08,20,22.10
2017,08,02,08,21,22.10
2017,08,02,08,22,22.10
2017,08,02,08,23,22.10
2017,08,02,08,24,22.10
2017,08,02,08,25,22.20
2017,08,02,08,26,22.20
2017,08,02,08,27,22.20
2017,08,02,08,28,22.20
2017,08,02,08,29,22.20
2017,08,02,08,30,22.20
2017,08,02,08,31,22.20
2017,08,02,08,32,22.20
2017,08,02,08,33,22.20
2017,08,02,08,34,22.30
2017,08,02,08,35,22.30
2017,08,02,08,36,22.30
2017,08,02,08,37,22.30
2017,08,02,08,38,22.30
2017,08,02,08,39,22.40
2017,08,02,08,40,22.40
2017,08,02,08,41,22.40
2017,08,02,08,42,22.40
2017,08,02,08,43,22.50
2017,08,02,08,44,22.50
2017,08,02,08,45,22.60
2017,08,02,08,46,22.60
2017,08,02,08,47,22.60
2017,08,02,08,48,22.70
2017,08,02,08,49,22.70
2017,08,02,08,50,22.80
2017,08,02,08,51,22.80
2017,08,02,08,52,22.80
2017,08,02,08,53,22.80
2017,08,02,08,54,22.90
2017,08,02,08,55,22.90
2017,08,02,08,56,22.90
2017,08,02,08,57,22.90
2017,08,02,08,58,23.00
2017,08,02,08,59,23.00
2017,08,02,09,00,23.00
2017,08,02,09,01,23.00
2017,08,02,09,02,23.10
2017,08,02,09,03,23.10
2017,08,02,09,04,23.10
2017,08,02,09,05,23.10
2017,08,02,09,06,23.20
2017,08,02,09,07,23.20
2017,08,02,09,08,23.20
2017,08,02,09,09,23.30
2017,08,02,09,10,23.30
2017,08,02,09,11,23.30
2017,08,02,09,12,23.30
2017,08,02,09,13,23.40
2017,08,02,09,14,23.40
2017,08,02,09,15,23.40
2017,08,02,09,16,23.40
2017,08,02,09,17,23.40
2017,08,02,09,18,23.50
2017,08,02,09,19,23.50
2017,08,02,09,20,23.60
2017,08,02,09,21,23.60
2017,08,02,09,22,23.60
2017,08,02,09,23,23.60
2017,08,02,09,24,23.70
2017,08,02,09,25,23.80
2017,08,02,09,26,23.80
2017,08,02,09,27,23.90
2017,08,02,09,28,23.90
2017,08,02,09,29,23.90
2017,08,02,09,30,23.90
2017,08,02,09,31,24.00
2017,08,02,09,32,24.00
2017,08,02,09,33,24.10
2017,08,02,09,34,24.10
2017,08,02,09,35,24.10
2017,08,02,09,36,24.10
2017,08,02,09,37,24.10
2017,08,02,09,38,24.20
2017,08,02,09,39,24.20
2017,08,02,09,40,24.20
2017,08,02,09,41,24.20
2017,08,02,09,42,24.20
2017,08,02,09,43,24.20
2017,08,02,09,44,24.20
2017,08,02,09,45,24.20
2017,08,02,09,46,24.20
2017,08,02,09,47,24.20
2017,08,02,09,48,24.20
2017,08,02,09,49,24.30
2017,08,02,09,50,24.30
2017,08,02,09,51,24.30
2017,08,02,09,52,24.40
2017,08,02,09,53,24.40
2017,08,02,09,54,24.40
2017,08,02,09,55,24.50
2017,08,02,09,56,24.60
2017,08,02,09,57,24.60
2017,08,02,09,58,24.70
2017,08,02,09,59,24.80
2017,08,02,10,00,24.80
2017,08,02,10,01,24.80
2017,08,02,10,02,24.90
2017,08,02,10,03,24.90
2017,08,02,10,04,25.00
2017,08,02,10,05,25.00
2017,08,02,10,06,25.10
2017,08,02,10,07,25.10
2017,08,02,10,08,25.10
2017,08,02,10,09,25.10
2017,08,02,10,10,25.00
2017,08,02,10,11,24.90
2017,08,02,10,12,24.80
2017,08,02,10,13,24.80
2017,08,02,10,14,24.80
2017,08,02,10,15,24.80
2017,08,02,10,16,24.70
2017,08,02,10,17,24.70
2017,08,02,10,18,24.60
2017,08,02,10,19,24.60
2017,08,02,10,20,24.50
2017,08,02,10,21,24.50
2017,08,02,10,22,24.40
2017,08,02,10,23,24.40
2017,08,02,10,24,24.40
2017,08,02,10,25,24.40
2017,08,02,10,26,24.30
2017,08,02,10,27,24.30
2017,08,02,10,28,24.30
2017,08,02,10,29,24.30
2017,08,02,10,30,24.20
2017,08,02,10,31,24.10
2017,08,02,10,32,24.00
2017,08,02,10,33,24.00
2017,08,02,10,34,24.00
2017,08,02,10,35,23.90
2017,08,02,10,36,23.80
2017,08,02,10,37,23.80
2017,08,02,10,38,23.70
2017,08,02,10,39,23.70
2017,08,02,10,40,23.70
2017,08,02,10,41,23.70
2017,08,02,10,42,23.80
2017,08,02,10,43,23.80
2017,08,02,10,44,23.80
2017,08,02,10,45,23.80
2017,08,02,10,46,23.80
2017,08,02,10,47,23.90
2017,08,02,10,48,24.00
2017,08,02,10,49,24.10
2017,08,02,10,50,24.20
2017,08,02,10,51,24.20
2017,08,02,10,52,24.20
2017,08,02,10,53,24.30
2017,08,02,10,54,24.30
2017,08,02,10,55,24.40
2017,08,02,10,56,24.40
2017,08,02,10,57,24.40
2017,08,02,10,58,24.40
2017,08,02,10,59,24.40
2017,08,02,11,00,24.50
2017,08,02,11,01,24.50
2017,08,02,11,02,24.50
2017,08,02,11,03,24.50
2017,08,02,11,04,24.50
2017,08,02,11,05,24.60
2017,08,02,11,06,24.60
2017,08,02,11,07,24.60
2017,08,02,11,08,24.70
2017,08,02,11,09,24.80
2017,08,02,11,10,24.80
2017,08,02,11,11,24.90
2017,08,02,11,12,25.00
2017,08,02,11,13,25.00
2017,08,02,11,14,25.00
2017,08,02,11,15,25.20
2017,08,02,11,16,25.20
2017,08,02,11,17,25.20
2017,08,02,11,18,25.30
2017,08,02,11,19,25.30
2017,08,02,11,20,25.30
2017,08,02,11,21,25.30
2017,08,02,11,22,25.30
2017,08,02,11,23,25.40
2017,08,02,11,24,25.50
2017,08,02,11,25,25.60
2017,08,02,11,26,25.70
2017,08,02,11,27,25.70
2017,08,02,11,28,25.60
2017,08,02,11,29,25.60
2017,08,02,11,30,25.50
2017,08,02,11,31,25.60
2017,08,02,11,32,25.60
2017,08,02,11,33,25.70
2017,08,02,11,34,25.80
2017,08,02,11,35,25.80
2017,08,02,11,36,25.90
2017,08,02,11,37,26.00
2017,08,02,11,38,26.00
2017,08,02,11,39,26.00
2017,08,02,11,40,26.00
2017,08,02,11,41,26.00
2017,08,02,11,42,26.10
2017,08,02,11,43,26.20
2017,08,02,11,44,26.30
2017,08,02,11,45,26.40
2017,08,02,11,46,26.40
2017,08,02,11,47,26.50
2017,08,02,11,48,26.60
2017,08,02,11,49,26.60
2017,08,02,11,50,26.70
2017,08,02,11,51,26.80
2017,08,02,11,52,26.80
2017,08,02,11,53,26.80
2017,08,02,11,54,26.90
2017,08,02,11,55,27.00
2017,08,02,11,56,27.10
2017,08,02,11,57,27.20
2017,08,02,11,58,27.20
2017,08,02,11,59,27.20
2017,08,02,12,00,27.20
2017,08,02,12,01,27.20
2017,08,02,12,02,27.30
2017,08,02,12,03,27.20
2017,08,02,12,04,27.20
2017,08,02,12,05,27.20
2017,08,02,12,06,27.20
2017,08,02,12,07,27.20
2017,08,02,12,08,27.20
2017,08,02,12,09,27.20
2017,08,02,12,10,27.30
2017,08,02,12,11,27.40
2017,08,02,12,12,27.50
2017,08,02,12,13,27.60
2017,08,02,12,14,27.70
2017,08,02,12,15,27.80
2017,08,02,12,16,27.90
2017,08,02,12,17,28.00
2017,08,02,12,18,28.10
2017,08,02,12,19,28.10
2017,08,02,12,20,28.10
2017,08,02,12,21,28.10
2017,08,02,12,22,28.10
2017,08,02,12,23,28.10
2017,08,02,12,24,28.10
2017,08,02,12,25,28.10
2017,08,02,12,26,28.10
2017,08,02,12,27,28.10
2017,08,02,12,28,28.20
2017,08,02,12,29,28.20
2017,08,02,12,30,28.20
2017,08,02,12,31,28.20
2017,08,02,12,32,28.20
2017,08,02,12,33,28.20
2017,08,02,12,34,28.20
2017,08,02,12,35,28.20
2017,08,02,12,36,28.10
2017,08,02,12,37,28.10
2017,08,02,12,38,28.00
2017,08,02,12,39,28.00
2017,08,02,12,40,28.00
2017,08,02,12,41,27.90
2017,08,02,12,42,27.90
2017,08,02,12,43,27.90
2017,08,02,12,44,28.00
2017,08,02,12,45,28.10
2017,08,02,12,46,28.20
2017,08,02,12,47,28.30
2017,08,02,12,48,28.40
2017,08,02,12,49,28.50
2017,08,02,12,50,28.50
2017,08,02,12,51,28.40
2017,08,02,12,52,28.40
2017,08,02,12,53,28.50
2017,08,02,12,54,28.50
2017,08,02,12,55,28.50
2017,08,02,12,56,28.60
2017,08,02,12,57,28.60
2017,08,02,12,58,28.70
2017,08,02,12,59,28.80
2017,08,02,13,00,28.90
2017,08,02,13,01,28.90
2017,08,02,13,02,29.00
2017,08,02,13,03,28.90
2017,08,02,13,04,29.00
2017,08,02,13,05,29.10
2017,08,02,13,06,29.20
2017,08,02,13,07,29.30
2017,08,02,13,08,29.40
2017,08,02,13,09,29.50
2017,08,02,13,10,29.70
2017,08,02,13,11,29.70
2017,08,02,13,12,29.80
2017,08,02,13,13,29.80
2017,08,02,13,14,29.80
2017,08,02,13,15,29.80
2017,08,02,13,16,29.90
2017,08,02,13,17,30.00
2017,08,02,13,18,30.10
2017,08,02,13,19,30.10
2017,08,02,13,20,30.20
2017,08,02,13,21,30.10
2017,08,02,13,22,30.00
2017,08,02,13,23,29.80
2017,08,02,13,24,29.80
2017,08,02,13,25,29.70
2017,08,02,13,26,29.70
2017,08,02,13,27,29.70
2017,08,02,13,28,29.70
2017,08,02,13,29,29.70
2017,08,02,13,30,29.80
2017,08,02,13,31,29.80
2017,08,02,13,32,29.90
2017,08,02,13,33,29.90
2017,08,02,13,34,30.00
2017,08,02,13,35,30.00
2017,08,02,13,36,30.00
2017,08,02,13,37,30.00
2017,08,02,13,38,29.90
2017,08,02,13,39,30.00
2017,08,02,13,40,30.00
2017,08,02,13,41,30.00
2017,08,02,13,42,30.00
2017,08,02,13,43,30.00
2017,08,02,13,44,30.10
2017,08,02,13,45,30.10
2017,08,02,13,46,30.10
2017,08,02,13,47,30.10
2017,08,02,13,48,30.20
2017,08,02,13,49,30.30
2017,08,02,13,50,30.20
2017,08,02,13,51,30.20
2017,08,02,13,52,30.20
2017,08,02,13,53,30.20
2017,08,02,13,54,30.10
2017,08,02,13,55,30.10
2017,08,02,13,56,30.20
2017,08,02,13,57,30.20
2017,08,02,13,58,30.00
2017,08,02,13,59,29.90
2017,08,02,14,00,29.70
2017,08,02,14,01,29.60
2017,08,02,14,02,29.60
2017,08,02,14,03,29.60
2017,08,02,14,04,29.60
2017,08,02,14,05,29.60
2017,08,02,14,06,29.80
2017,08,02,14,07,29.90
2017,08,02,14,08,30.00
2017,08,02,14,09,30.10
2017,08,02,14,10,30.20
2017,08,02,14,11,30.30
2017,08,02,14,12,30.30
2017,08,02,14,13,30.40
2017,08,02,14,14,30.40
2017,08,02,14,15,30.40
2017,08,02,14,16,30.50
2017,08,02,14,17,30.50
2017,08,02,14,18,30.60
2017,08,02,14,19,30.60
2017,08,02,14,20,30.70
2017,08,02,14,21,30.70
2017,08,02,14,22,30.70
2017,08,02,14,23,30.60
2017,08,02,14,24,30.50
2017,08,02,14,25,30.40
2017,08,02,14,26,30.30
2017,08,02,14,27,30.30
2017,08,02,14,28,30.30
2017,08,02,14,29,30.30
2017,08,02,14,30,30.40
2017,08,02,14,31,30.40
2017,08,02,14,32,30.40
2017,08,02,14,33,30.30
2017,08,02,14,34,30.40
2017,08,02,14,35,30.50
2017,08,02,14,36,30.70
2017,08,02,14,37,30.80
2017,08,02,14,38,30.80
2017,08,02,14,39,30.80
2017,08,02,14,40,30.80
2017,08,02,14,41,30.80
2017,08,02,14,42,30.80
2017,08,02,14,43,30.80
2017,08,02,14,44,30.90
2017,08,02,14,45,30.90
2017,08,02,14,46,31.10
2017,08,02,14,47,31.30
2017,08,02,14,48,31.40
2017,08,02,14,49,31.50
2017,08,02,14,50,31.60
2017,08,02,14,51,31.70
2017,08,02,14,52,31.70
2017,08,02,14,53,31.70
2017,08,02,14,54,31.70
2017,08,02,14,55,31.70
2017,08,02,14,56,31.70
2017,08,02,14,57,31.70
2017,08,02,14,58,31.70
2017,08,02,14,59,31.70
2017,08,02,15,00,31.70
2017,08,02,15,01,31.70
2017,08,02,15,02,31.60
2017,08,02,15,03,31.60
2017,08,02,15,04,31.50
2017,08,02,15,05,31.40
2017,08,02,15,06,31.50
2017,08,02,15,07,31.70
2017,08,02,15,08,31.70
2017,08,02,15,09,31.70
2017,08,02,15,10,31.70
2017,08,02,15,11,31.60
2017,08,02,15,12,31.50
2017,08,02,15,13,31.40
2017,08,02,15,14,31.40
2017,08,02,15,15,31.40
2017,08,02,15,16,31.40
2017,08,02,15,17,31.50
2017,08,02,15,18,31.60
2017,08,02,15,19,31.70
2017,08,02,15,20,31.70
2017,08,02,15,21,31.80
2017,08,02,15,22,31.80
2017,08,02,15,23,31.80
2017,08,02,15,24,31.80
2017,08,02,15,25,31.90
2017,08,02,15,26,32.00
2017,08,02,15,27,32.10
2017,08,02,15,28,32.10
2017,08,02,15,29,32.20
2017,08,02,15,30,32.10
2017,08,02,15,31,32.10
2017,08,02,15,32,32.10
2017,08,02,15,33,32.00
2017,08,02,15,34,31.90
2017,08,02,15,35,31.90
2017,08,02,15,36,31.80
2017,08,02,15,37,31.70
2017,08,02,15,38,31.70
2017,08,02,15,39,31.80
2017,08,02,15,40,31.80
2017,08,02,15,41,31.90
2017,08,02,15,42,31.80
2017,08,02,15,43,31.80
2017,08,02,15,44,31.70
2017,08,02,15,45,31.70
2017,08,02,15,46,31.70
2017,08,02,15,47,31.70
2017,08,02,15,48,31.80
2017,08,02,15,49,31.80
2017,08,02,15,50,31.80
2017,08,02,15,51,31.80
2017,08,02,15,52,31.90
2017,08,02,15,53,31.90
2017,08,02,15,54,32.00
2017,08,02,15,55,32.10
2017,08,02,15,56,32.10
2017,08,02,15,57,32.00
2017,08,02,15,58,31.90
2017,08,02,15,59,32.00
2017,08,02,16,00,32.10
2017,08,02,16,01,32.10
2017,08,02,16,02,32.10
2017,08,02,16,03,32.10
2017,08,02,16,04,32.20
2017,08,02,16,05,32.20
2017,08,02,16,06,32.30
2017,08,02,16,07,32.30
2017,08,02,16,08,32.30
2017,08,02,16,09,32.30
2017,08,02,16,10,32.40
2017,08,02,16,11,32.40
2017,08,02,16,12,32.40
2017,08,02,16,13,32.50
2017,08,02,16,14,32.40
2017,08,02,16,15,32.30
2017,08,02,16,16,32.20
2017,08,02,16,17,32.20
2017,08,02,16,18,32.10
2017,08,02,16,19,32.10
2017,08,02,16,20,32.00
2017,08,02,16,21,32.00
2017,08,02,16,22,32.00
2017,08,02,16,23,32.00
2017,08,02,16,24,32.00
2017,08,02,16,25,32.00
2017,08,02,16,26,32.00
2017,08,02,16,27,31.90
2017,08,02,16,28,31.90
2017,08,02,16,29,31.80
2017,08,02,16,30,31.90
2017,08,02,16,31,31.90
2017,08,02,16,32,32.00
2017,08,02,16,33,32.10
2017,08,02,16,34,32.10
2017,08,02,16,35,32.20
2017,08,02,16,36,32.30
2017,08,02,16,37,32.30
2017,08,02,16,38,32.20
2017,08,02,16,39,32.20
2017,08,02,16,40,32.30
2017,08,02,16,41,32.30
2017,08,02,16,42,32.30
2017,08,02,16,43,32.20
2017,08,02,16,44,32.20
2017,08,02,16,45,32.20
2017,08,02,16,46,32.20
2017,08,02,16,47,32.30
2017,08,02,16,48,32.30
2017,08,02,16,49,32.40
2017,08,02,16,50,32.50
2017,08,02,16,51,32.50
2017,08,02,16,52,32.50
2017,08,02,16,53,32.50
2017,08,02,16,54,32.50
2017,08,02,16,55,32.40
2017,08,02,16,56,32.30
2017,08,02,16,57,32.30
2017,08,02,16,58,32.30
2017,08,02,16,59,32.30
2017,08,02,17,00,32.40
2017,08,02,17,01,32.40
2017,08,02,17,02,32.40
2017,08,02,17,03,32.30
2017,08,02,17,04,32.20
2017,08,02,17,05,32.20
2017,08,02,17,06,32.20
2017,08,02,17,07,32.20
2017,08,02,17,08,32.20
2017,08,02,17,09,32.20
2017,08,02,17,10,32.20
2017,08,02,17,11,32.30
2017,08,02,17,12,32.30
2017,08,02,17,13,32.20
2017,08,02,17,14,32.20
2017,08,02,17,15,32.20
2017,08,02,17,16,32.20
2017,08,02,17,17,32.20
2017,08,02,17,18,32.10
2017,08,02,17,19,32.10